Regional Weather Roundup
Issued by NWS Portland, ME

Home | Current Version | Previous Version | Text Only | Print | Product List | Glossary On
Versions: 1 2 3 4 5 6 7 8 9 10 11 12 13 14 15 16 17 18 19 20 21 22 23 24 25 26 27 28 29 30 31 32 33 34 35 36 37 38 39 40 41 42 43 44 45 46 47 48 49 50
000
ASUS41 KGYX 271210
RWRGYX
WEATHER ROUNDUP FOR MAINE AND NEW HAMPSHIRE
NATIONAL WEATHER SERVICE GRAY ME
800 AM EDT THU JUL 27 2017

MEZ002-005-006-010-012-015-018-020-021-024-026-027-029-271300-
MAINE

CITY           SKY/WX    TMP DP  RH WIND       PRES   REMARKS
PORTLAND       CLOUDY    63  59  87 SW8       29.98F
6HR MIN TEMP:  62; 6HR MAX TEMP:  63; 6HR PCP: TRACE;

WISCASSET      CLOUDY    64  62  93 S3        29.99F
6HR MIN TEMP:  58; 6HR MAX TEMP:  64; 6HR PCP: TRACE;

ROCKLAND       LGT RAIN  63  61  93 SW5       29.99F
FRYEBURG       CLOUDY    63  62  97 S3        29.97F
6HR MIN TEMP:  60; 6HR MAX TEMP:  63; 6HR PCP:  0.04;

LEWISTONAUBURN CLOUDY    61  60  97 SE5       29.97F
AUGUSTA        CLOUDY    61  59  93 VRB6      29.97F
6HR MIN TEMP:  60; 6HR MAX TEMP:  62; 6HR PCP:  0.05;

WATERVILLE     CLOUDY    61  60  97 SW5       29.94F
BANGOR         LGT RAIN  62  60  93 S7        29.97F
6HR MIN TEMP:  61; 6HR MAX TEMP:  63; 6HR PCP:  0.06;

GREENVILLE       N/A    N/A N/A N/A VRB3      29.93S
MILLINOCKET    PTSUNNY   60  58  92 VRB6      29.96F
6HR MIN TEMP:  58; 6HR MAX TEMP:  65; 6HR PCP:  0.15;

HOULTON        LGT RAIN  59  57  93 S5        29.93F
6HR MIN TEMP:  58; 6HR MAX TEMP:  63; 6HR PCP:  0.04;

PRESQUE ISLE   PTSUNNY   62  57  83 S6        29.91F
6HR MIN TEMP:  60; 6HR MAX TEMP:  64; 6HR PCP: TRACE;

FRENCHVILLE    CLOUDY    61  55  81 VRB3      29.88F
6HR MIN TEMP:  60; 6HR MAX TEMP:  64; 6HR PCP: TRACE;

CARIBOU        CLOUDY    63  55  75 S8        29.89F
6HR MIN TEMP:  61; 6HR MAX TEMP:  64;

$$

NHZ002-005-008-009-011-012-014-271300-
NEW HAMPSHIRE

CITY           SKY/WX    TMP DP  RH WIND       PRES   REMARKS
PORTSMOUTH     CLOUDY    64  56  75 SW7       29.99S
ROCHESTER      CLOUDY    62  57  83 CALM      29.99F
6HR MIN TEMP:  59; 6HR MAX TEMP:  63; 6HR PCP:  0.01;

NASHUA         CLOUDY    63  58  83 CALM      30.01F
MANCHESTER     CLOUDY    64  54  69 S8        29.99F
6HR MIN TEMP:  63; 6HR MAX TEMP:  65; 6HR PCP: TRACE;

CONCORD        CLOUDY    63  59  87 S5        29.99F
6HR MIN TEMP:  62; 6HR MAX TEMP:  63; 6HR PCP: TRACE;

LACONIA        CLOUDY    64  59  83 SW6       29.98F
PLYMOUTH       CLOUDY    61  60  96 CALM      29.98F FOG
BERLIN         CLOUDY    63  57  81 CALM      29.96F
6HR MIN TEMP:  60; 6HR MAX TEMP:  63; 6HR PCP:  0.05;

WHITEFIELD     CLOUDY    64  56  75 CALM      29.97F
6HR MIN TEMP:  61; 6HR MAX TEMP:  64; 6HR PCP: TRACE;

JAFFREY        CLOUDY    61  57  87 SW3       30.04S
6HR MIN TEMP:  60; 6HR MAX TEMP:  63; 6HR PCP: TRACE;

KEENE          LGT RAIN  62  58  86 VRB3      30.02F
LEBANON        CLOUDY    64  61  90 S6        29.97F
6HR MIN TEMP:  62; 6HR MAX TEMP:  65; 6HR PCP:  0.09;

MT WASHINGTON  DRZL/FOG  45  45 100 W39         N/A  VSB 0
6HR MIN TEMP:  41; 6HR MAX TEMP:  47; 6HR PCP:  0.07;

$$

VTZ005-007-008-271300-
VERMONT

CITY           SKY/WX    TMP DP  RH WIND       PRES   REMARKS
ST JOHNSBURY     N/A     62  61  96 MISG      29.94F
MONTPELIER     CLOUDY    62  62 100 S8        29.99F
BURLINGTON     CLOUDY    65  62  90 S10       29.92F
$$

MAZ007-012-024-CTZ003-RIZ002-NYZ038-NYZ072-271300-
SOUTHERN NEW ENGLAND AND NY

CITY           SKY/WX    TMP DP  RH WIND       PRES   REMARKS
BOSTON         CLOUDY    65  59  81 SW12      30.03S
WORCESTER      LGT RAIN  60  55  83 W10       30.05S
NANTUCKET      CLOUDY    62  58  86 S7        30.08S
PROVIDENCE     CLOUDY    64  63  96 S3        30.06S
HARTFORD       CLOUDY    64  59  83 S8        30.04S
ALBANY         LGT RAIN  65  58  78 S10       30.00S
NEW YORK CITY  CLOUDY    70  62  76 SW7       30.05S
$$

ANZ081-ANZ082-ANZ150-NHZ014-MEZ023>029-271300-
COASTAL MARINE OBSERVATIONS

STATION/POSITION TIME  TEMP    WIND        PRES    WAVE
                       AIR SEA DIR/SP/G            HT/PER
                 (UTC) (F)     (DEG/KT/KT) (MB)    (FT/S)
MOUNT DESERT ROC 1200   60                 1016.0F
MATINICUS ROCK   1100   59     210/ 17/ 17 1015.7S
ISLE OF SHOALS   1100   63     220/ 17/ 18 1015.7F
JEFFREYS LEDGE   1106      63                N/A     3/ 9
CASHES LEDGE BUO 1050   63 61              1016.7    3/ 7
GEORGES BANK BUO 1050   62 63              1018.2    5/ 8
$$

.............KEY..............
   WCI - WIND CHILL
   TC  - TEMPERATURE IN CELSIUS
   VSB - VISIBILITY IN MILES
   HX  - HEAT INDEX
   FAIR- INDICATES FEW OR NO CLOUDS BELOW 12,000 FT, WITH NO
         SIGNIFICANT WEATHER AND/OR OBSTRUCTIONS TO VISIBILITY.






USA.gov is the U.S. government's official web portal to all federal, state and local government web resources and services.